Hundvaag 1 weather for Dec 1990
Month no. 42
Obs.
Da.
Temp. Dew Point Precip. Wind
Speed
Wind gusts Cloud cover Press. Humidity Wind dir. Sunny OPT
01.12.1990 1,2   0,4             1  
02.12.1990 7,2   5,0                
03.12.1990 6,8   5,3             1  
04.12.1990 2,9   5,0             1  
05.12.1990 1,9   0,2                
06.12.1990 5,8   4,5                
07.12.1990 2,8   6,9                
08.12.1990 1,7   0,3                
09.12.1990 2,9   0,0             1  
10.12.1990 2,4   0,0             1  
11.12.1990 1,8   0,0                
12.12.1990 4,8   23,3             1  
13.12.1990 -1,5   3,0                
14.12.1990 3,1   0,3                
15.12.1990 4,1   0,5                
16.12.1990 5,1   0,1                
17.12.1990 4,9   0,1                
18.12.1990 2,9   0,0                
19.12.1990 2,0   0,0                
20.12.1990 0,7   15,1                
21.12.1990 0,2   0,9             1  
22.12.1990 5,5   0,2                
23.12.1990 7,4   18,2                
24.12.1990 6,8   3,3                
25.12.1990 5,3   14,0                
26.12.1990 3,8   8,4                
27.12.1990 5,2   11,5                
28.12.1990 3,8   6,5             1  
29.12.1990 3,2   15,9                
30.12.1990 3,3   8,3                
31.12.1990 1,3   6,9                
Avrg/Sum 3,5   164,1             8